Miscellaneous Local Product
Issued by NWS North Platte, NE

Home | Current Version | Previous Version | Text Only | Print | Product List | Glossary On
Versions: 1 2 3 4 5 6 7 8 9 10 11 12 13 14 15 16 17 18 19 20 21 22 23 24 25 26 27 28 29 30 31 32 33 34 35 36 37 38 39 40 41 42 43 44 45 46 47 48 49 50
000
AXUS43 KLBF 211710
MISLBF


WESTERN AND NORTH CENTRAL NEBRASKA HOURLY WEATHER ROUNDUP
NATIONAL WEATHER SERVICE NORTH PLATTE NE
1200 PM CDT TUE OCT 21 2014

***STATIONS NOT REPORTING VARIABLES SUCH AS SKY/WEATHER OR
PRESSURE ARE PROVIDED BY THE NEBRASKA DEPARTMENT OF
ROADS...RAWS...AND APRS NETWORKS...AND ARE NOT UNDER
NATIONAL WEATHER SERVICE QUALITY CONTROL***

...OBSERVATIONS IN AND NEAR THE EASTERN PANHANDLE OF NEBRASKA...

CITY           SKY/WX    TMP DP  RH WIND       PRES   REMARKS
PINE RIDGE     SUNNY     67  47  48 S12       29.89F
CHADRON        MOSUNNY   71  48  43 SW6       29.88F
ALLIANCE       SUNNY     66  48  52 S10       29.94F
SIDNEY         SUNNY     65  48  54 S9        29.99F
WHITECLAY        N/A     67  47  48 S12         N/A
RUSHVILLE        N/A     65  42  42 SW17        N/A
CRESCENT LAKE    N/A     65  51  60 S8          N/A
LISCO            N/A     72  48  42 E10         N/A
BIG SPRINGS      N/A     61  53  73 S7          N/A
LEWELLEN         N/A     70  52  52 S14         N/A
$$

...OBSERVATIONS IN NORTH CENTRAL NEBRASKA...

CITY           SKY/WX    TMP DP  RH WIND       PRES   REMARKS
VALENTINE      SUNNY     72  48  42 S23G29    29.95S
THEDFORD       SUNNY     70  48  45 S18G24    30.01F
AINSWORTH      SUNNY     70  46  42 S22G28    29.98F
O`NEILL        SUNNY     75  46  35 S20       30.01F
ORD            SUNNY     72  43  35 S16       30.03F
BROKEN BOW     SUNNY     73  43  33 S18       30.04F
BROWNLEE         N/A     73  47  39 S30         N/A
SPRINGVIEW       N/A     72  49  44 SW10G20     N/A
BREWSTER         N/A     75  45  33 S25         N/A
ROSE             N/A     77  50  39 SE17        N/A
NEWPORT          N/A     75  47  36 S21         N/A
SARGENT          N/A     72  43  34 S6          N/A
COMSTOCK         N/A     79  44  28 S12         N/A
CHAMBERS         N/A     73  46  38 S12         N/A
$$

...OBSERVATIONS IN SOUTHWEST NEBRASKA AND FAR NORTHEAST COLORADO...

CITY           SKY/WX    TMP DP  RH WIND       PRES   REMARKS
WRAY           FAIR      74  50  42 S15       30.01F
HOLYOKE        FAIR      72  52  49 S13G18    30.00F
IMPERIAL       PTSUNNY   64  56  75 S15G23    30.02F
OGALLALA       SUNNY     65  55  70 S16G23    30.00S
NORTH PLATTE   SUNNY     68  53  58 S18       30.03F
MCCOOK         SUNNY     71  55  56 S17G24    30.04F
LEXINGTON      SUNNY     71  44  38 S18G24    30.05F
PAXTON           N/A     62  56  80 S9          N/A
SUTHERLAND       N/A     66  58  75 S14         N/A
BRADY            N/A     67  51  56 CALM        N/A
GOTHENBURG       N/A     65  42  43 S12         N/A
CALLAWAY         N/A     65  49  56 S18         N/A
$$

...SOME WEATHER OBSERVATIONS FROM AROUND THE REGION...

CITY           SKY/WX    TMP DP  RH WIND       PRES   REMARKS
DENVER         MOSUNNY   71  37  28 W9        30.02F
LARAMIE        SUNNY     60  36  40 SW8       30.09F
CHEYENNE       MOSUNNY   70  36  28 SW18      30.04F
SCOTTSBLUFF    MOSUNNY   62  43  49 CALM      29.96F
RAPID CITY     SUNNY     72  45  37 SE9       29.81F
PIERRE         SUNNY     73  45  36 S13       29.85S
WINNER         FAIR      76  43  30 S26G36    29.91F
SIOUX FALLS    SUNNY     66  42  41 S16G22    30.05F
OMAHA          SUNNY     65  42  43 SE7       30.12F
GRAND ISLAND   SUNNY     71  45  39 S12       30.08F
KANSAS CITY    SUNNY     67  47  48 CALM      30.14F
WICHITA        MOSUNNY   75  53  46 SE15      30.10F
HAYS           SUNNY     70  57  64 SE15      30.08F
LIBERAL        SUNNY     70  57  64 S6        30.11S
GOODLAND       MOSUNNY   61  55  81 S15       30.06F
$$



USA.gov is the U.S. government's official web portal to all federal, state and local government web resources and services.